[[{"header":{"parameterUnit":"m.s-1","parameterCategory":1,"la1":30.2991,"la2":30.254,"lo1":-89.0895,"lo2":-89.0444,"dy":0.0017,"dx":0.0017,"nx":28,"ny":28,"refTime":"2024-07-07T21:00:00:Z","depth":0,"parameterNumber":2,"parameterNumberName":"U-component_of_WINDS"},"data":[0,0,0,0,0,0,0,0,0,0,0,0,0,0,0,0,0,0,0,0,0,0,0,0,0,0,0,0,0,0,0,0,0,0,0,0,0,0,0,0,0,0,0,0,0,0,0,0,0,0,0,0,0,0,0,0,0,0,-1.7321,-1.732,0,-1.7245,-1.7244,-1.7243,-1.7229,-1.7229,-1.723,-1.723,-1.7149,-1.7146,-1.7143,0,0,0,0,0,0,0,0,0,0,0,0,0,-1.7452,-1.7449,-1.7321,-1.732,-1.7319,-1.7245,-1.7244,-1.7243,-1.7229,-1.7229,-1.723,-1.7231,-1.7149,-1.7146,-1.7143,0,0,0,0,0,0,0,0,0,0,0,0,0,-1.7387,-1.7448,-1.7322,-1.7303,-1.7301,-1.7245,-1.7244,-1.7242,-1.7228,-1.7229,-1.723,-1.7231,-1.7151,-1.7147,-1.7142,-1.7098,0,0,-1.713,-1.7128,0,0,0,0,0,0,0,0,-1.7391,-1.7382,-1.7307,-1.7305,-1.7302,-1.7247,-1.726,-1.7194,-1.7228,-1.7256,-1.723,-1.7232,-1.718,-1.7174,-1.7157,-1.7094,-1.709,-1.7129,-1.7127,-1.7125,-1.7124,0,0,0,0,0,0,0,-1.7395,-1.7385,-1.7291,-1.7306,-1.7303,-1.7298,-1.729,-1.7247,-1.7214,-1.7254,-1.7252,-1.7244,-1.7179,-1.7161,-1.7155,-1.7089,-1.7129,-1.7126,-1.7123,-1.7122,-1.6983,-1.6981,0,0,0,0,0,0,-1.7403,-1.7389,-1.7293,-1.7289,-1.735,-1.7295,-1.7286,-1.7264,-1.7214,-1.7208,-1.7243,-1.7243,-1.7168,-1.716,-1.7152,-1.7094,-1.7125,-1.7121,-1.7119,-1.6984,-1.6982,-1.6981,0,0,0,0,0,0,-1.7406,-1.7395,-1.7296,-1.7338,-1.7326,-1.7292,-1.7267,-1.7262,-1.7244,-1.7206,-1.72,-1.7231,-1.7168,-1.7158,-1.7111,-1.7091,-1.7119,-1.7116,-1.6985,-1.6983,-1.6982,-1.698,0,0,0,0,0,0,-1.741,-1.7396,-1.738,-1.7338,-1.7323,-1.7258,-1.7266,-1.726,-1.7237,-1.7237,-1.7193,-1.7187,-1.7168,-1.7117,-1.7107,-1.7086,-1.7112,-1.6987,-1.6984,-1.6982,-1.6981,-1.6978,-1.6975,0,0,0,0,0,-1.7415,-1.7382,-1.7379,-1.7367,-1.7303,-1.7257,-1.7248,-1.7228,-1.7236,-1.7218,-1.7194,-1.7188,-1.7096,-1.7113,-1.7101,-1.7078,-1.6988,-1.6985,-1.6982,-1.6982,-1.6979,-1.6975,0,0,0,0,0,0,-1.7421,-1.7376,-1.7372,-1.7326,-1.7295,-1.7254,-1.7231,-1.7225,-1.7191,-1.7192,-1.7168,-1.7158,-1.7112,-1.7091,-1.711,-1.7031,-1.7042,-1.7037,-1.7046,-1.7042,-1.7039,-1.7044,-1.7109,0,0,0,0,0,-1.7418,-1.7385,-1.7347,-1.731,-1.7295,-1.7266,-1.7245,-1.7233,-1.7199,-1.7186,-1.7158,-1.7125,-1.7088,-1.7065,-1.7029,-1.6979,-1.6967,-1.6958,-1.6955,-1.6952,-1.6947,-1.6916,-1.691,-1.6972,-1.6972,-1.6972,0,0,-1.7409,-1.738,-1.7361,-1.731,-1.7285,-1.725,-1.7255,-1.7219,-1.7192,-1.718,-1.7133,-1.7112,-1.7073,-1.7024,-1.7001,-1.7005,-1.6928,-1.6949,-1.6947,-1.6943,-1.6913,-1.6907,-1.6902,-1.697,-1.6971,-1.6971,0,0,-1.7375,-1.7352,-1.7316,-1.7291,-1.7253,-1.7234,-1.7225,-1.7185,-1.717,-1.7124,-1.7113,-1.7081,-1.7019,-1.6991,-1.6969,-1.6923,-1.6916,-1.6913,-1.6896,-1.6866,-1.6861,-1.6856,-1.6837,-1.6831,-1.6908,-1.6908,-1.6908,0,-1.7369,-1.7317,-1.7299,-1.7262,-1.7239,-1.7228,-1.719,-1.7167,-1.7118,-1.7102,-1.7108,-1.7028,-1.7002,-1.6944,-1.6933,-1.6917,-1.6904,-1.6916,-1.6863,-1.6859,-1.6854,-1.6835,-1.6828,-1.6908,-1.6908,-1.6908,-1.6908,0,-1.7309,-1.7274,-1.725,-1.7204,-1.7178,-1.7141,-1.7116,-1.7092,-1.7082,-1.7061,-1.7012,-1.698,-1.6937,-1.6923,-1.6913,-1.6863,-1.6866,-1.6868,-1.6878,-1.6848,-1.683,-1.6823,-1.6907,-1.6907,-1.6908,-1.6908,0,0,-1.7276,-1.7221,-1.7212,-1.7189,-1.7147,-1.7118,-1.708,-1.7038,-1.7016,-1.6984,-1.6949,-1.6897,-1.6898,-1.6873,-1.6859,-1.6833,-1.6795,-1.6838,-1.6836,-1.6828,-1.6735,-1.6731,-1.6724,-1.6792,-1.679,-1.6789,-1.6737,0,-1.7235,-1.7167,-1.7149,-1.7091,-1.7056,-1.7045,-1.7012,-1.6981,-1.6961,-1.6927,-1.6905,-1.6867,-1.6873,-1.6857,-1.6831,-1.6806,-1.6776,-1.681,-1.6756,-1.6755,-1.6763,-1.6715,-1.6711,-1.6663,-1.673,-1.6729,-1.6728,0,-1.7177,-1.7143,-1.7082,-1.7041,-1.7026,-1.6996,-1.6955,-1.6924,-1.6888,-1.6875,-1.6846,-1.6835,-1.6793,-1.6807,-1.6747,-1.6771,-1.6748,-1.6732,-1.673,-1.6721,-1.6737,-1.6702,-1.6648,-1.664,-1.6717,-1.6718,-1.6719,0,-1.7155,-1.7094,-1.7049,-1.7031,-1.6983,-1.6962,-1.6941,-1.6906,-1.6881,-1.6845,-1.6828,-1.6788,-1.6765,-1.6734,-1.6711,-1.6724,-1.6651,-1.6665,-1.6637,-1.6637,-1.662,-1.662,-1.6558,-1.6611,-1.6611,-1.6611,-1.6612,0,-1.7109,-1.7071,-1.7038,-1.701,-1.6966,-1.6945,-1.6902,-1.6881,-1.6849,-1.6815,-1.6804,-1.6772,-1.6746,-1.6709,-1.6692,-1.6643,-1.6633,-1.662,-1.6615,-1.6619,-1.662,-1.6601,-1.6602,-1.6609,-1.661,-1.661,-1.6611,0,-1.7076,-1.7053,-1.7002,-1.6961,-1.695,-1.6919,-1.6883,-1.6854,-1.6834,-1.6791,-1.678,-1.6747,-1.6704,-1.6679,-1.6625,-1.6612,-1.6557,-1.6555,-1.6569,-1.6566,-1.6538,-1.654,-1.6459,-1.6446,-1.6511,-1.651,-1.651,0,-1.7046,-1.7017,-1.6972,-1.6949,-1.6927,-1.689,-1.6865,-1.6843,-1.6817,-1.6773,-1.6748,-1.6705,-1.6668,-1.6599,-1.657,-1.6527,-1.6522,-1.6497,-1.6516,-1.652,-1.6517,-1.6518,-1.6513,-1.6493,-1.6492,-1.6492,-1.6491,0,-1.6995,-1.6985,-1.6949,-1.6908,-1.6878,-1.6845,-1.6812,-1.6794,-1.6766,-1.6737,-1.6692,-1.6664,-1.6608,-1.6564,-1.6519,-1.6495,-1.6487,-1.6486,-1.6477,-1.6478,-1.6486,-1.6478,-1.6556,-1.6487,-1.6488,-1.6488,-1.6488,-1.6488,-1.696,-1.6932,-1.6896,-1.6856,-1.6829,-1.6798,-1.6768,-1.6744,-1.6707,-1.666,-1.6649,-1.6602,-1.6564,-1.6503,-1.6479,-1.644,-1.6444,-1.6432,-1.6428,-1.6424,-1.6421,-1.6496,-1.6432,-1.6433,-1.6433,-1.6433,-1.6433,0,-1.6905,-1.6881,-1.6845,-1.6799,-1.6766,-1.6764,-1.6727,-1.6699,-1.6658,-1.6624,-1.6588,-1.6536,-1.6493,-1.646,-1.6415,-1.639,-1.6385,-1.6378,-1.6378,-1.6372,-1.6422,-1.6433,-1.6383,-1.6383,-1.6383,-1.6383,-1.6383,-1.6383,-1.6873,-1.6824,-1.6809,-1.6746,-1.6722,-1.6676,-1.6654,-1.6625,-1.6598,-1.654,-1.6504,-1.6483,-1.6449,-1.6401,-1.636,-1.6352,-1.6334,-1.6327,-1.6318,-1.6364,-1.6369,-1.6374,-1.6384,-1.6325,-1.6325,-1.6271,-1.627,-1.627]},{"header":{"parameterUnit":"m.s-1","parameterCategory":1,"la1":30.2991,"la2":30.254,"lo1":-89.0895,"lo2":-89.0444,"dy":0.0017,"dx":0.0017,"nx":28,"ny":28,"refTime":"2024-07-07T21:00:00:Z","depth":0,"parameterNumber":3,"parameterNumberName":"V-component_of_WINDS"},"data":[0,0,0,0,0,0,0,0,0,0,0,0,0,0,0,0,0,0,0,0,0,0,0,0,0,0,0,0,0,0,0,0,0,0,0,0,0,0,0,0,0,0,0,0,0,0,0,0,0,0,0,0,0,0,0,0,0,0,1.7689,1.7689,0,1.7682,1.7682,1.7682,1.7634,1.7633,1.7632,1.7631,1.7626,1.7627,1.7628,0,0,0,0,0,0,0,0,0,0,0,0,0,1.7663,1.7663,1.7689,1.7689,1.7689,1.7682,1.7682,1.7682,1.7634,1.7633,1.7632,1.763,1.7626,1.7627,1.7628,0,0,0,0,0,0,0,0,0,0,0,0,0,1.7667,1.7664,1.7689,1.7664,1.7662,1.7682,1.7682,1.7682,1.7635,1.7633,1.7631,1.763,1.7625,1.7627,1.7628,1.7673,0,0,1.7633,1.7633,0,0,0,0,0,0,0,0,1.7667,1.7668,1.7668,1.7666,1.7663,1.7657,1.7671,1.7679,1.7635,1.7645,1.7631,1.7629,1.7638,1.7638,1.7641,1.7673,1.7672,1.7633,1.7634,1.7634,1.7635,0,0,0,0,0,0,0,1.7667,1.7668,1.7686,1.7668,1.7665,1.7654,1.7653,1.7673,1.7652,1.7644,1.764,1.764,1.7636,1.764,1.7641,1.7672,1.7633,1.7634,1.7635,1.7636,1.7744,1.7746,0,0,0,0,0,0,1.7669,1.7668,1.7686,1.7686,1.7661,1.7656,1.7655,1.7661,1.7651,1.7648,1.7642,1.7638,1.7638,1.7639,1.764,1.7695,1.7634,1.7636,1.7637,1.7742,1.7745,1.7747,0,0,0,0,0,0,1.7669,1.7672,1.7687,1.7676,1.7677,1.7658,1.7666,1.7662,1.7665,1.765,1.7646,1.7649,1.7637,1.7638,1.7666,1.7694,1.7636,1.7638,1.774,1.7743,1.7746,1.7803,0,0,0,0,0,0,1.7669,1.7672,1.7687,1.7677,1.7678,1.7712,1.7668,1.7663,1.7668,1.7663,1.7655,1.7652,1.7635,1.7664,1.7667,1.7695,1.7639,1.7737,1.7741,1.7745,1.7798,1.7807,1.7815,0,0,0,0,0,1.7668,1.7703,1.7689,1.7691,1.7697,1.7713,1.7714,1.7693,1.767,1.7687,1.7677,1.7653,1.769,1.7667,1.7671,1.7699,1.7736,1.774,1.7745,1.7794,1.7805,1.7815,0,0,0,0,0,0,1.7718,1.7701,1.7685,1.7718,1.7717,1.7705,1.7725,1.7705,1.7712,1.7707,1.7681,1.768,1.7713,1.7708,1.7683,1.7744,1.7709,1.7714,1.7746,1.7756,1.7764,1.7765,1.764,0,0,0,0,0,1.7732,1.7746,1.7731,1.7762,1.7762,1.7744,1.775,1.7734,1.7733,1.7733,1.7725,1.7726,1.7738,1.7746,1.7756,1.7797,1.7796,1.7818,1.7827,1.7834,1.7839,1.7864,1.7875,1.7762,1.7762,1.7762,0,0,1.7763,1.7756,1.7766,1.7772,1.7769,1.7786,1.7744,1.7762,1.7775,1.7736,1.7762,1.7757,1.7756,1.7791,1.7806,1.7788,1.787,1.7839,1.7845,1.7847,1.787,1.7881,1.789,1.7765,1.7764,1.7764,0,0,1.7828,1.7823,1.7849,1.7848,1.7846,1.7834,1.784,1.7832,1.7827,1.7853,1.7825,1.7839,1.786,1.7861,1.7865,1.7933,1.7912,1.7937,1.7981,1.8006,1.8015,1.8023,1.805,1.806,1.7942,1.7942,1.7942,0,1.7867,1.7889,1.7866,1.7887,1.7891,1.7857,1.7885,1.7885,1.7886,1.7891,1.7871,1.7898,1.7894,1.7931,1.7948,1.7951,1.796,1.7938,1.8015,1.8023,1.803,1.8056,1.8066,1.7946,1.7945,1.7945,1.7944,0,1.7939,1.7955,1.7977,1.798,1.7987,1.8011,1.7992,1.8002,1.7987,1.7977,1.8006,1.8001,1.8011,1.8018,1.8002,1.8054,1.8043,1.8019,1.7984,1.8044,1.8069,1.8078,1.795,1.7949,1.7948,1.7947,0,0,1.8035,1.8026,1.8035,1.8037,1.8032,1.8045,1.8069,1.8078,1.8089,1.8091,1.8112,1.8132,1.811,1.8114,1.8099,1.812,1.8179,1.8094,1.8093,1.8112,1.8239,1.8259,1.8271,1.8164,1.8165,1.8167,1.824,0,1.81,1.814,1.8121,1.8163,1.818,1.8148,1.817,1.817,1.8163,1.8177,1.8168,1.8184,1.8152,1.8155,1.8175,1.8167,1.8204,1.8161,1.8186,1.8187,1.819,1.8283,1.8304,1.8373,1.8249,1.8251,1.8252,0,1.8181,1.8188,1.8233,1.8228,1.8234,1.8254,1.8263,1.8275,1.8277,1.827,1.8276,1.8256,1.8281,1.8245,1.828,1.8252,1.8261,1.8259,1.8261,1.8265,1.8225,1.8292,1.8395,1.8407,1.8266,1.8265,1.8264,0,1.8251,1.8271,1.8301,1.8304,1.8298,1.8313,1.8312,1.8311,1.8319,1.8327,1.8333,1.8343,1.835,1.8359,1.8344,1.8318,1.8383,1.8345,1.8381,1.8382,1.8398,1.8397,1.8506,1.8399,1.8398,1.8398,1.8398,0,1.8327,1.8357,1.8333,1.8352,1.8385,1.8363,1.8397,1.8392,1.8392,1.8411,1.8383,1.8402,1.8379,1.8396,1.8383,1.8417,1.8419,1.8417,1.8414,1.8421,1.8422,1.8428,1.8424,1.8401,1.84,1.84,1.8399,0,1.8412,1.8397,1.8428,1.8421,1.842,1.8445,1.8439,1.8458,1.8448,1.8473,1.8477,1.8464,1.8482,1.8467,1.8485,1.8477,1.8523,1.8511,1.8523,1.8521,1.8559,1.8557,1.8678,1.8694,1.8573,1.8575,1.8576,0,1.8463,1.8485,1.8481,1.8491,1.8492,1.8509,1.8518,1.8497,1.8507,1.8512,1.853,1.8547,1.8559,1.8591,1.8583,1.8598,1.8588,1.863,1.859,1.8598,1.8593,1.8593,1.8597,1.8639,1.864,1.8641,1.8642,0,1.8556,1.8548,1.8561,1.8573,1.8584,1.8592,1.8598,1.8608,1.8588,1.8601,1.862,1.863,1.8649,1.8667,1.8679,1.8679,1.8659,1.8654,1.8664,1.8673,1.8681,1.8681,1.8548,1.8652,1.8651,1.865,1.865,1.865,1.8628,1.8647,1.8648,1.8665,1.8667,1.8674,1.8692,1.8685,1.8701,1.8715,1.8702,1.8726,1.8729,1.8743,1.8746,1.8766,1.8749,1.8762,1.8766,1.877,1.8777,1.8675,1.8767,1.8767,1.8767,1.8766,1.8766,0,1.8723,1.8722,1.8737,1.8747,1.8761,1.8739,1.8745,1.8759,1.878,1.8784,1.8797,1.8821,1.8839,1.8833,1.885,1.8867,1.8858,1.8872,1.8872,1.8873,1.879,1.8781,1.8879,1.8879,1.8879,1.8879,1.8879,1.8879,1.8774,1.8807,1.88,1.8835,1.8834,1.8857,1.8863,1.887,1.8874,1.8902,1.8917,1.8912,1.8914,1.893,1.8947,1.8945,1.8953,1.8972,1.8967,1.889,1.8879,1.8868,1.886,1.8973,1.8973,1.9049,1.905,1.905]}]]